This is the latest recevied weather packets stored in our database for station/object KI8L. If no packets are shown the sender has not sent any weather packets the latest 10 day(s).
| Time | Temp. | Humidity | Pressure | Rain* | Wind** | Luminosity | Snow |
|---|---|---|---|---|---|---|---|
| 1777821208 | 12.22° C | 53% | 1019 hPa | 0 mm | - | 572 W/m² | - |
| 1777820905 | 12.22° C | 50% | 1018.9 hPa | 0 mm | - | 562 W/m² | - |
| 1777820601 | 12.78° C | 50% | 1019 hPa | 0 mm | - | 555 W/m² | - |
| 1777820298 | 12.22° C | 51% | 1019.1 hPa | 0 mm | - | 546 W/m² | - |
| 1777819995 | 11.67° C | 55% | 1019.2 hPa | 0 mm | - | 536 W/m² | - |
| 1777819692 | 11.67° C | 50% | 1019.1 hPa | 0 mm | - | 525 W/m² | - |
| 1777819391 | 12.22° C | 53% | 1019.1 hPa | 0 mm | - | 516 W/m² | - |
| 1777819088 | 12.22° C | 51% | 1019.1 hPa | 0 mm | - | 505 W/m² | - |
| 1777818784 | 11.67° C | 50% | 1019.3 hPa | 0 mm | - | 494 W/m² | - |
| 1777818480 | 11.11° C | 59% | 1019.2 hPa | 0 mm | - | 483 W/m² | - |
| 1777818177 | 11.11° C | 53% | 1019.1 hPa | 0 mm | - | 472 W/m² | - |
| 1777817874 | 11.67° C | 56% | 1019.3 hPa | 0 mm | - | 462 W/m² | - |
| 1777817572 | 10.56° C | 55% | 1019.1 hPa | 0 mm | - | 450 W/m² | - |
| 1777817268 | 10.56° C | 55% | 1019.2 hPa | 0 mm | - | 438 W/m² | - |
| 1777816965 | 10.56° C | 56% | 1019.4 hPa | 0 mm | - | 425 W/m² | - |
| 1777816661 | 10° C | 60% | 1019.4 hPa | 0 mm | - | 414 W/m² | - |
| 1777816358 | 10° C | 56% | 1019.5 hPa | 0 mm | - | 401 W/m² | - |
| 1777816056 | 9.44° C | 60% | 1019.4 hPa | 0 mm | - | 389 W/m² | - |
| 1777815754 | 9.44° C | 63% | 1019.5 hPa | 0 mm | - | 378 W/m² | - |
| 1777815451 | 8.89° C | 64% | 1019.5 hPa | 0 mm | - | 366 W/m² | - |
| 1777815149 | 8.89° C | 64% | 1019.5 hPa | 0 mm | - | 348 W/m² | - |
| 1777814845 | 8.89° C | 62% | 1019.5 hPa | 0 mm | - | 268 W/m² | - |
| 1777814540 | 8.33° C | 63% | 1019.6 hPa | 0 mm | - | 143 W/m² | - |
| 1777814238 | 8.33° C | 61% | 1019.5 hPa | 0 mm | - | 84 W/m² | - |
| 1777813935 | 7.78° C | 68% | 1019.6 hPa | 0 mm | - | 58 W/m² | - |
* Rain latest hour (hover to see other rain measurements)
** Current wind speed in m/s (hover to see current wind gust speed)